Location: Barnston
(51.8500°N, 0.4000°E)
Time: 05:29:23
(UTC+00:00)

Cosmos 1766 Rocket - Pass Details

Date: 26 September 2023
Orbit: 603 x 630 km, 82.5° (Epoch: 29 November)

Event Time Altitude Azimuth Distance (km) Brightness Sun altitude
Rises 03:38:54 0° 347° (NNW) 2,886 7.2 -20.5°
Reaches altitude 10° 03:41:08 10° 344° (NNW) 1,981 6.3 -20.2°
Maximum altitude 03:45:29 66° 263° (W) 677 3.4 -19.5°
Enters shadow 03:48:14 22° 186° (S) 1,362 5.0 -19.2°
